GW0828 Weather Reports


Display with metric or nautical units.
time (UTC)temp
F
wind
direction
speed
MPH
gust
MPH
rain 1hr
in
rain 24hr
in
rain mn
in
humidity
%
barometer
mb
20260506080540 32 0 0.0 0.0 0.00 0.82 0.01 94 1017.8
20260506073049 32 0 0.0 2.0 0.01 0.86 0.01 94 1017.8
20260506072538 32 0 0.0 3.0 0.01 0.86 0.01 94 1017.8
20260506072038 32 54 1.0 3.0 0.01 0.86 0.01 94 1017.8
20260506071552 32 28 0.0 3.0 0.01 0.86 0.01 94 1017.8
20260506071038 32 28 1.0 3.0 0.01 0.86 0.01 94 1017.8
20260506070538 32 0 1.0 3.0 0.01 0.86 0.01 94 1017.9
20260506062038 33 65 1.0 4.0 0.01 0.85 0.00 94 1017.9
20260506061551 33 43 2.0 4.0 0.01 0.85 0.00 94 1017.7
20260506061038 33 63 1.0 3.0 0.01 0.85 0.00 94 1017.7
20260506060538 33 61 2.0 3.0 0.02 0.85 0.00 94 1017.6
20260506051038 33 42 1.0 4.0 0.03 0.84 0.84 94 1017.1
20260506050538 33 28 2.0 5.0 0.02 0.83 0.83 93 1017.1
20260506045038 33 45 2.0 4.0 0.02 0.83 0.83 94 1017.1
20260506044643 33 28 1.0 4.0 0.02 0.83 0.83 94 1017.1
20260506044038 33 27 1.0 4.0 0.02 0.83 0.83 94 1017.0
20260506043538 33 66 1.0 4.0 0.01 0.82 0.82 94 1017.0
20260506043047 33 266 0.0 4.0 0.01 0.82 0.82 93 1016.9
20260506042538 33 266 1.0 3.0 0.01 0.82 0.82 93 1016.9
20260506042039 33 0 1.0 3.0 0.01 0.82 0.82 93 1016.9
20260506041559 33 266 1.0 2.0 0.01 0.82 0.82 93 1016.8
20260506041038 33 0 0.0 2.0 0.01 0.81 0.81 93 1016.8
20260506040541 33 0 0.0 0.0 0.01 0.81 0.81 93 1016.7
20260506040047 33 0 0.0 0.0 0.01 0.81 0.81 93 1016.6
20260506035538 33 0 0.0 0.0 0.01 0.81 0.81 93 1016.6
20260506035038 33 0 0.0 2.0 0.01 0.81 0.81 93 1016.6
20260506034623 33 0 0.0 3.0 0.01 0.81 0.81 93 1016.6
20260506034038 33 266 0.0 3.0 0.02 0.81 0.81 93 1016.5
20260506033538 33 266 0.0 3.0 0.02 0.81 0.81 93 1016.6
20260506033056 33 259 0.0 3.0 0.02 0.81 0.81 93 1016.4
20260506032538 33 259 1.0 3.0 0.02 0.81 0.81 93 1016.4
20260506032038 33 0 0.0 2.0 0.02 0.81 0.81 93 1016.3
20260506031548 33 0 0.0 3.0 0.02 0.81 0.81 93 1016.4
20260506031038 33 0 0.0 3.0 0.01 0.80 0.80 93 1016.4
20260506030538 33 260 1.0 3.0 0.01 0.80 0.80 93 1016.3
20260506030052 33 0 1.0 3.0 0.01 0.80 0.80 93 1016.3
20260506025538 33 0 0.0 3.0 0.01 0.81 0.80 93 1016.2
20260506025039 33 277 1.0 3.0 0.01 0.81 0.80 93 1016.0
20260506024554 33 275 1.0 4.0 0.01 0.81 0.80 93 1015.8
20260506024040 33 266 1.0 4.0 0.00 0.80 0.79 93 1015.7
20260506023539 33 271 1.0 3.0 0.00 0.80 0.79 93 1015.6
20260506023108 33 250 1.0 3.0 0.00 0.80 0.79 93 1015.6
20260506022538 33 250 1.0 3.0 0.00 0.80 0.79 93 1015.4
20260506022038 33 250 1.0 3.0 0.00 0.80 0.79 93 1015.5
20260506021549 33 250 0.0 3.0 0.00 0.80 0.79 93 1015.3
20260506021038 33 0 1.0 3.0 0.00 0.80 0.79 93 1015.2
20260506020541 33 250 0.0 3.0 0.00 0.80 0.79 93 1015.2
20260506020049 33 0 0.0 3.0 0.00 0.80 0.79 93 1015.1
20260506015538 33 0 0.0 3.0 0.00 0.80 0.79 93 1015.1
20260506015040 33 250 0.0 3.0 0.00 0.80 0.79 93 1015.2
20260506014553 33 0 0.0 3.0 0.00 0.80 0.79 93 1015.1
20260506014043 33 250 1.0 3.0 0.00 0.80 0.79 93 1015.2
20260506013538 33 279 1.0 3.0 0.00 0.80 0.79 93 1015.0
20260506013049 33 293 1.0 3.0 0.00 0.80 0.79 93 1014.7
20260506012538 33 292 1.0 3.0 0.00 0.80 0.79 93 1014.7
20260506012038 33 273 0.0 3.0 0.00 0.80 0.79 93 1014.6
20260506011603 33 273 0.0 2.0 0.00 0.80 0.79 93 1014.6
20260506011038 33 0 0.0 2.0 0.00 0.80 0.79 93 1014.6
20260506010540 33 273 0.0 2.0 0.00 0.80 0.79 93 1014.6
20260506010056 33 272 0.0 3.0 0.00 0.80 0.79 93 1014.6
20260506005537 33 273 1.0 3.0 0.00 0.84 0.79 93 1014.7
20260506005037 33 296 1.0 3.0 0.00 0.84 0.79 93 1014.6
20260506004624 33 0 1.0 4.0 0.00 0.84 0.79 93 1014.6
20260506004037 33 272 1.0 4.0 0.00 0.84 0.79 93 1014.6
20260506003539 33 263 1.0 4.0 0.00 0.84 0.79 93 1014.5
20260506003107 33 0 1.0 3.0 0.00 0.84 0.79 93 1014.5
20260506002537 33 0 1.0 4.0 0.00 0.84 0.79 93 1014.6
20260506002037 33 264 1.0 4.0 0.00 0.84 0.79 93 1014.6
20260506001552 33 283 1.0 4.0 0.00 0.84 0.79 93 1014.5
20260506001039 33 281 0.0 4.0 0.00 0.84 0.79 93 1014.5
20260506000539 33 292 0.0 4.0 0.00 0.84 0.79 93 1014.4
20260506000047 33 320 1.0 4.0 0.00 0.84 0.79 93 1014.3
20260505235540 33 321 1.0 4.0 0.00 0.84 0.79 93 1014.2
20260505235038 33 0 1.0 3.0 0.00 0.84 0.79 93 1014.1
20260505234614 33 0 0.0 4.0 0.00 0.84 0.79 93 1014.2
20260505234037 33 342 1.0 4.0 0.00 0.84 0.79 93 1014.3
20260505233540 33 0 0.0 4.0 0.00 0.84 0.79 93 1014.3
20260505233053 33 335 1.0 4.0 0.01 0.84 0.79 93 1014.3
20260505232537 33 0 0.0 4.0 0.01 0.84 0.79 93 1014.4
20260505232041 33 0 1.0 4.0 0.01 0.84 0.79 92 1014.4
20260505231548 33 347 1.0 4.0 0.01 0.84 0.79 92 1014.4
20260505231037 33 0 1.0 4.0 0.02 0.84 0.79 92 1014.5
20260505230537 33 308 1.0 3.0 0.02 0.84 0.79 93 1014.4
20260505230050 33 282 1.0 4.0 0.03 0.84 0.79 93 1014.3
20260505225538 33 285 1.0 4.0 0.03 0.84 0.79 92 1014.4
20260505225037 33 262 2.0 4.0 0.04 0.84 0.79 92 1014.3
20260505224552 33 258 2.0 5.0 0.04 0.84 0.79 92 1014.3
20260505224037 34 285 1.0 5.0 0.05 0.84 0.79 92 1014.2
20260505223537 34 312 0.0 4.0 0.05 0.84 0.79 92 1014.2
20260505223049 34 245 1.0 5.0 0.05 0.83 0.78 93 1014.3
20260505222538 34 304 2.0 5.0 0.05 0.83 0.78 93 1014.3
20260505222038 34 10 1.0 5.0 0.06 0.83 0.78 92 1014.1
20260505221544 34 1 2.0 6.0 0.06 0.82 0.77 92 1014.0
20260505221037 34 3 2.0 6.0 0.06 0.82 0.77 92 1014.0
20260505220537 34 2 2.0 5.0 0.07 0.82 0.77 92 1013.9
20260505220059 34 360 1.0 8.0 0.07 0.81 0.76 92 1014.1
20260505215537 34 352 1.0 9.0 0.07 0.81 0.76 92 1014.3
20260505215037 34 31 3.0 9.0 0.07 0.80 0.75 92 1014.2
20260505214549 34 6 3.0 9.0 0.08 0.80 0.75 92 1014.1
20260505214040 34 32 2.0 9.0 0.07 0.79 0.74 92 1014.1
20260505213538 34 0 4.0 9.0 0.08 0.79 0.74 92 1014.1
20260505213052 34 4 3.0 6.0 0.07 0.78 0.73 92 1014.1
20260505212538 34 1 2.0 8.0 0.07 0.78 0.73 92 1014.0
20260505212108 34 20 3.0 8.0 0.07 0.77 0.72 92 1014.1
20260505211551 34 284 1.0 5.0 0.06 0.76 0.71 92 1014.1
20260505211038 34 342 1.0 5.0 0.06 0.76 0.71 92 1014.3
20260505210537 34 18 3.0 9.0 0.05 0.75 0.70 92 1014.3
20260505210054 34 29 3.0 9.0 0.04 0.74 0.69 92 1014.2
20260505205538 34 38 2.0 7.0 0.05 0.74 0.69 92 1014.3
20260505205038 34 352 2.0 7.0 0.04 0.73 0.68 92 1014.3
20260505204552 34 2 3.0 7.0 0.03 0.72 0.67 92 1014.2
20260505204039 34 25 1.0 5.0 0.03 0.72 0.67 92 1014.4
20260505203539 35 25 1.0 8.0 0.03 0.71 0.66 92 1014.5
20260505203051 35 27 3.0 8.0 0.03 0.71 0.66 92 1014.5
20260505202538 35 316 3.0 8.0 0.03 0.71 0.66 92 1014.7
20260505202038 35 347 3.0 11.0 0.02 0.70 0.65 92 1014.8
20260505201547 35 23 3.0 13.0 0.02 0.70 0.65 92 1014.8
20260505201038 35 18 5.0 14.0 0.02 0.70 0.65 92 1014.8
20260505200538 35 46 5.0 14.0 0.02 0.70 0.65 92 1014.6
20260505200049 35 6 7.0 14.0 0.03 0.70 0.65 92 1014.8
20260505195538 35 5 5.0 12.0 0.02 0.69 0.64 92 1014.7
20260505195038 35 48 5.0 12.0 0.02 0.69 0.64 92 1014.8
20260505194549 35 32 7.0 12.0 0.03 0.69 0.64 92 1014.8
20260505194038 35 47 7.0 12.0 0.03 0.69 0.64 92 1014.8
20260505193539 35 17 6.0 19.0 0.03 0.68 0.63 92 1014.8
20260505193056 35 48 8.0 19.0 0.03 0.68 0.63 92 1014.8
20260505192539 34 61 10.0 19.0 0.03 0.68 0.63 92 1014.7
20260505192037 34 29 10.0 18.0 0.04 0.68 0.63 92 1014.8
20260505191556 34 54 9.0 18.0 0.04 0.68 0.63 92 1014.8
20260505191038 34 34 9.0 21.0 0.05 0.68 0.63 92 1014.8
20260505190537 34 42 11.0 21.0 0.05 0.68 0.63 92 1015.0
20260505190048 34 59 9.0 18.0 0.05 0.67 0.62 92 1015.1
20260505185538 34 71 11.0 18.0 0.05 0.67 0.62 92 1015.1
20260505185038 34 56 6.0 14.0 0.05 0.67 0.62 92 1015.1
20260505184545 34 29 8.0 14.0 0.04 0.66 0.61 92 1014.9
20260505184039 34 80 5.0 14.0 0.04 0.66 0.61 91 1014.9
20260505183537 35 53 8.0 14.0 0.04 0.65 0.60 91 1015.1
20260505183050 36 1 4.0 10.0 0.04 0.65 0.60 92 1015.1
20260505182537 36 34 3.0 7.0 0.03 0.64 0.58 92 1014.9
20260505182040 36 39 1.0 5.0 0.03 0.64 0.58 93 1015.1
20260505181554 36 38 2.0 4.0 0.04 0.64 0.58 92 1015.1
20260505181039 36 0 1.0 5.0 0.03 0.63 0.58 92 1015.1
20260505180537 36 17 2.0 6.0 0.04 0.63 0.58 93 1015.2
20260505180058 36 37 1.0 6.0 0.03 0.62 0.57 92 1015.1
20260505175539 36 33 2.0 5.0 0.04 0.62 0.57 92 1015.1
20260505175040 36 45 2.0 5.0 0.04 0.62 0.57 93 1015.1
20260505174606 36 54 2.0 5.0 0.05 0.62 0.57 92 1015.1
20260505174038 36 19 2.0 5.0 0.05 0.62 0.57 93 1015.2
20260505173537 37 27 2.0 4.0 0.05 0.61 0.56 93 1015.2
20260505173050 37 16 1.0 3.0 0.06 0.61 0.56 93 1015.4
20260505172540 36 0 0.0 2.0 0.07 0.61 0.56 93 1015.6
20260505172037 36 302 0.0 3.0 0.08 0.61 0.56 93 1015.8
20260505171553 36 0 0.0 3.0 0.08 0.60 0.55 93 1015.6
20260505171038 36 57 0.0 3.0 0.09 0.60 0.55 93 1015.6
20260505170537 35 0 0.0 3.0 0.09 0.58 0.54 93 1015.5
20260505170126 35 75 0.0 4.0 0.10 0.58 0.54 93 1015.4
20260505165537 35 76 1.0 4.0 0.10 0.58 0.52 93 1015.4
20260505165038 35 76 1.0 4.0 0.11 0.58 0.52 93 1015.4
20260505164549 35 83 1.0 3.0 0.11 0.57 0.52 93 1015.5
20260505164039 35 332 0.0 2.0 0.12 0.57 0.52 93 1015.5
20260505163538 35 289 1.0 3.0 0.12 0.56 0.51 93 1015.4
20260505163048 35 289 0.0 3.0 0.12 0.55 0.50 92 1015.4
20260505162538 34 0 0.0 3.0 0.12 0.54 0.49 92 1015.4
20260505162037 34 0 0.0 2.0 0.11 0.52 0.48 92 1015.5
20260505161601 34 0 0.0 2.0 0.11 0.52 0.47 92 1015.6
20260505161037 34 289 0.0 2.0 0.10 0.51 0.46 93 1015.8
20260505160540 34 0 0.0 3.0 0.10 0.50 0.45 93 1015.9
20260505153055 34 0 0.0 2.0 0.07 0.43 0.38 92 1015.8
20260505152537 34 0 0.0 2.0 0.06 0.42 0.37 92 1015.8
20260505152040 34 0 0.0 2.0 0.06 0.42 0.37 92 1015.9
20260505151554 33 0 0.0 1.0 0.05 0.41 0.36 92 1015.9
20260505151037 33 0 0.0 2.0 0.05 0.41 0.36 92 1015.9
20260505150537 33 0 0.0 2.0 0.04 0.40 0.35 92 1015.9
20260505140537 33 283 0.0 2.0 0.00 0.36 0.31 92 1015.9
20260505125037 34 281 1.0 4.0 0.03 0.36 0.31 91 1015.4
20260505124553 34 285 2.0 4.0 0.03 0.36 0.31 91 1015.3
20260505124037 34 259 1.0 4.0 0.03 0.35 0.30 91 1015.2
20260505123539 34 271 1.0 4.0 0.03 0.35 0.30 91 1015.1
20260505123103 34 266 2.0 6.0 0.03 0.35 0.30 91 1015.0
20260505122538 34 0 1.0 6.0 0.03 0.35 0.30 91 1014.9
20260505122038 34 275 1.0 6.0 0.02 0.34 0.29 91 1015.0
20260505121549 34 0 1.0 4.0 0.03 0.34 0.29 91 1014.9
20260505121037 34 263 1.0 4.0 0.03 0.34 0.29 91 1014.9
20260505120537 34 288 1.0 4.0 0.03 0.34 0.29 91 1015.0
20260505120048 34 299 1.0 3.0 0.03 0.34 0.29 91 1015.0
20260505115538 34 0 0.0 4.0 0.03 0.33 0.28 91 1014.9
20260505115034 34 0 1.0 6.0 0.04 0.33 0.28 91 1014.9
20260505114611 34 271 1.0 6.0 0.05 0.33 0.28 90 1014.7
20260505114038 34 259 2.0 6.0 0.05 0.32 0.27 90 1014.6
20260505113541 34 262 2.0 6.0 0.06 0.32 0.27 90 1014.6
20260505113049 35 0 2.0 6.0 0.07 0.32 0.27 90 1014.6
20260505112537 35 277 2.0 6.0 0.08 0.32 0.27 90 1014.6
20260505112035 35 46 1.0 8.0 0.09 0.32 0.27 90 1014.5
20260505111602 35 0 1.0 9.0 0.09 0.31 0.26 90 1014.6
20260505111041 35 42 3.0 9.0 0.09 0.31 0.26 90 1014.4
20260505110537 35 44 3.0 10.0 0.10 0.31 0.26 90 1014.3
20260505102037 36 44 6.0 12.0 0.05 0.23 0.18 89 1014.1
20260505101546 36 16 7.0 12.0 0.04 0.22 0.17 89 1013.9
20260505101038 36 21 7.0 13.0 0.03 0.21 0.16 89 1013.9
20260505100537 36 23 6.0 13.0 0.04 0.21 0.16 89 1013.9
20260505100054 36 54 7.0 13.0 0.03 0.20 0.15 89 1013.9
20260505095536 36 333 7.0 14.0 0.05 0.20 0.15 88 1013.8
20260505095038 37 38 7.0 14.0 0.06 0.20 0.15 88 1013.9
20260505094550 37 25 9.0 14.0 0.07 0.20 0.15 88 1013.9
20260505094036 37 17 8.0 13.0 0.07 0.19 0.14 88 1013.9
20260505093537 37 21 7.0 15.0 0.08 0.19 0.14 88 1013.9
20260505093050 37 2 6.0 15.0 0.08 0.19 0.14 88 1013.9
20260505092537 37 352 8.0 15.0 0.09 0.19 0.14 88 1014.1
20260505092037 38 4 7.0 18.0 0.08 0.18 0.13 88 1013.8
20260505091548 38 279 7.0 18.0 0.08 0.18 0.13 88 1013.8
20260505091036 39 342 5.0 15.0 0.09 0.18 0.13 88 1013.8
20260505090537 39 11 5.0 14.0 0.08 0.17 0.12 88 1013.9
20260505090052 40 3 5.0 14.0 0.07 0.16 0.11 88 1013.8
20260505085537 40 21 5.0 12.0 0.06 0.15 0.10 88 1013.8
20260505085037 41 326 5.0 14.0 0.05 0.14 0.09 88 1013.8
20260505084548 41 6 7.0 14.0 0.04 0.13 0.08 87 1013.6
20260505084038 41 2 6.0 14.0 0.04 0.12 0.07 88 1013.5
20260505083537 41 342 5.0 13.0 0.04 0.11 0.06 88 1013.3
20260505083102 42 352 3.0 12.0 0.05 0.11 0.06 87 1013.3
20260505082537 42 298 4.0 10.0 0.04 0.10 0.05 87 1013.2
20260505082037 42 318 2.0 11.0 0.05 0.10 0.05 87 1013.3
20260505081553 42 342 5.0 11.0 0.05 0.10 0.05 87 1013.2
20260505081037 42 311 4.0 11.0 0.04 0.09 0.04 87 1013.2